Location: Shenandoah County Park
(38.9356°N, 78.4524°W)
Time: 04:17:14
(UTC-04:00)

Transit 2A - Pass Details

Date: 17 June 2024
Orbit: 591 x 960 km, 66.7° (Epoch: 23 July)

Event Time Altitude Azimuth Distance (km) Brightness Sun altitude
Rises 04:35:42 0° 306° (NW) 3,601 9.4 -12.0°
Maximum altitude 04:41:55 10° 260° (W) 2,689 8.3 -11.1°
Drops below altitude 10° 04:41:56 10° 260° (W) 2,689 8.3 -11.1°
Enters shadow 04:42:26 10° 255° (WSW) 2,696 8.3 -11.0°
